Time,TemperatureF,DewpointF,PressureIn,WindDirection,WindDirectionDegrees,WindSpeedMPH,WindSpeedGustMPH,Humidity,HourlyPrecipIn,Conditions,Clouds,dailyrainin,SoftwareType,DateUTC
2013-05-02 03:03:00,57.0,-99.9,30.19,ESE,112,0.0,0.0,-999,0.00,,,0.00,,2013-05-02 10:03:00,
2013-05-02 03:12:00,57.0,-99.9,30.19,ESE,112,0.0,0.0,-999,0.00,,,0.00,,2013-05-02 10:12:00,
2013-05-02 03:23:00,57.0,-99.9,30.20,ESE,112,0.0,0.0,-999,0.00,,,0.00,,2013-05-02 10:23:00,
2013-05-02 03:33:00,57.0,-99.9,30.20,ESE,112,0.0,0.0,-999,0.00,,,0.00,,2013-05-02 10:33:00,
2013-05-02 03:42:00,57.0,-99.9,30.20,ESE,112,0.0,0.0,-999,0.00,,,0.00,,2013-05-02 10:42:00,
2013-05-02 03:53:00,55.0,-99.9,30.20,SW,222,0.0,0.0,-999,0.00,,,0.00,,2013-05-02 10:53:00,
2013-05-02 04:02:00,56.0,-99.9,30.20,SW,222,0.0,0.0,-999,0.00,,,0.00,,2013-05-02 11:02:00,
2013-05-02 04:12:00,56.0,-99.9,30.20,SW,222,0.0,0.0,-999,0.00,,,0.00,,2013-05-02 11:12:00,
2013-05-02 04:22:00,56.0,-99.9,30.22,SW,222,0.0,0.0,-999,0.00,,,0.00,,2013-05-02 11:22:00,
2013-05-02 04:32:00,55.0,-99.9,30.22,SW,222,0.0,0.0,-999,0.00,,,0.00,,2013-05-02 11:32:00,
2013-05-02 04:42:00,55.0,-99.9,30.22,SW,222,0.0,0.0,-999,0.00,,,0.00,,2013-05-02 11:42:00,
2013-05-02 04:52:00,56.0,-99.9,30.22,SW,222,0.0,0.0,-999,0.00,,,0.00,,2013-05-02 11:52:00,
2013-05-02 05:01:00,54.0,-99.9,30.23,SW,222,0.0,0.0,-999,0.00,,,0.00,,2013-05-02 12:01:00,
2013-05-02 05:12:00,54.0,-99.9,30.23,SW,222,0.0,0.0,-999,0.00,,,0.00,,2013-05-02 12:12:00,
2013-05-02 05:22:00,54.0,-99.9,30.23,SW,222,0.0,0.0,-999,0.00,,,0.00,,2013-05-02 12:22:00,
2013-05-02 05:32:00,54.0,-99.9,30.24,SW,232,0.0,3.0,-999,0.00,,,0.00,,2013-05-02 12:32:00,
2013-05-02 05:42:00,54.0,-99.9,30.24,SW,232,0.0,3.0,-999,0.00,,,0.00,,2013-05-02 12:42:00,
2013-05-02 05:52:00,55.0,-99.9,30.25,West,267,0.0,0.0,-999,0.00,,,0.00,,2013-05-02 12:52:00,
2013-05-02 06:01:00,57.0,-99.9,30.27,West,267,0.0,0.0,-999,0.00,,,0.00,,2013-05-02 13:01:00,
2013-05-02 06:11:00,57.0,-99.9,30.27,West,267,0.0,0.0,-999,0.00,,,0.00,,2013-05-02 13:11:00,
2013-05-02 06:22:00,57.0,-99.9,30.27,West,267,0.0,0.0,-999,0.00,,,0.00,,2013-05-02 13:22:00,
2013-05-02 06:32:00,58.0,-99.9,30.29,West,267,0.0,0.0,-999,0.00,,,0.00,,2013-05-02 13:32:00,
2013-05-02 06:42:00,58.0,-99.9,30.29,West,267,0.0,0.0,-999,0.00,,,0.00,,2013-05-02 13:42:00,
2013-05-02 06:52:00,60.0,-99.9,30.29,West,267,0.0,0.0,-999,0.00,,,0.00,,2013-05-02 13:52:00,
2013-05-02 07:02:00,61.0,-99.9,30.30,West,272,0.0,3.0,-999,0.00,,,0.00,,2013-05-02 14:02:00,
2013-05-02 07:11:00,61.0,-99.9,30.30,West,272,0.0,3.0,-999,0.00,,,0.00,,2013-05-02 14:11:00,
2013-05-02 07:22:00,62.0,-99.9,30.30,NNW,348,0.0,0.0,-999,0.00,,,0.00,,2013-05-02 14:22:00,
2013-05-02 07:32:00,64.0,-99.9,30.30,NNW,348,0.0,0.0,-999,0.00,,,0.00,,2013-05-02 14:32:00,
2013-05-02 07:43:00,64.0,-99.9,30.30,NNW,348,0.0,0.0,-999,0.00,,,0.00,,2013-05-02 14:43:00,
2013-05-02 07:52:00,65.0,-99.9,30.30,NNE,18,1.0,3.0,-999,0.00,,,0.00,,2013-05-02 14:52:00,
2013-05-02 08:02:00,65.0,-99.9,30.30,North,1,5.0,11.0,-999,0.00,,,0.00,,2013-05-02 15:02:00,
2013-05-02 08:12:00,65.0,-99.9,30.30,North,1,5.0,11.0,-999,0.00,,,0.00,,2013-05-02 15:12:00,
2013-05-02 08:22:00,66.0,-99.9,30.31,North,355,2.0,11.0,-999,0.00,,,0.00,,2013-05-02 15:22:00,
2013-05-02 08:33:00,68.0,-99.9,30.30,NNW,340,3.0,8.0,-999,0.00,,,0.00,,2013-05-02 15:33:00,
2013-05-02 08:43:00,68.0,-99.9,30.30,NNW,340,3.0,8.0,-999,0.00,,,0.00,,2013-05-02 15:43:00,
2013-05-02 09:03:00,69.0,-99.9,30.31,NW,324,0.0,6.0,-999,0.00,,,0.00,,2013-05-02 16:03:00,
2013-05-02 09:13:00,69.0,-99.9,30.31,NW,324,0.0,6.0,-999,0.00,,,0.00,,2013-05-02 16:13:00,
2013-05-02 09:23:00,72.0,-99.9,30.31,East,85,5.0,12.0,-999,0.00,,,0.00,,2013-05-02 16:23:00,
2013-05-02 09:32:00,73.0,-99.9,30.31,East,94,5.0,13.0,-999,0.00,,,0.00,,2013-05-02 16:32:00,
2013-05-02 09:43:00,75.0,-99.9,30.31,NE,53,5.0,11.0,-999,0.00,,,0.00,,2013-05-02 16:43:00,
2013-05-02 09:52:00,75.0,-99.9,30.31,NE,53,5.0,11.0,-999,0.00,,,0.00,,2013-05-02 16:52:00,
2013-05-02 10:02:00,76.0,-99.9,30.31,ENE,78,7.0,9.0,-999,0.00,,,0.00,,2013-05-02 17:02:00,
2013-05-02 10:12:00,77.0,-99.9,30.31,SSW,194,3.0,11.0,-999,0.00,,,0.00,,2013-05-02 17:12:00,
2013-05-02 10:22:00,77.0,-99.9,30.31,SSW,194,3.0,11.0,-999,0.00,,,0.00,,2013-05-02 17:22:00,
2013-05-02 10:32:00,78.0,-99.9,30.31,East,87,5.0,11.0,-999,0.00,,,0.00,,2013-05-02 17:32:00,
2013-05-02 10:42:00,78.0,-99.9,30.31,East,87,5.0,11.0,-999,0.00,,,0.00,,2013-05-02 17:42:00,
2013-05-02 10:52:00,79.0,-99.9,30.31,East,97,6.0,11.0,-999,0.00,,,0.00,,2013-05-02 17:52:00,
2013-05-02 11:02:00,79.0,-99.9,30.31,ENE,67,7.0,14.0,-999,0.00,,,0.00,,2013-05-02 18:02:00,
2013-05-02 11:12:00,79.0,-99.9,30.31,ENE,67,7.0,14.0,-999,0.00,,,0.00,,2013-05-02 18:12:00,
2013-05-02 11:22:00,80.0,-99.9,30.30,ENE,75,8.0,13.0,-999,0.00,,,0.00,,2013-05-02 18:22:00,
2013-05-02 11:32:00,81.0,-99.9,30.29,North,1,5.0,14.0,-999,0.00,,,0.00,,2013-05-02 18:32:00,
2013-05-02 11:42:00,81.0,-99.9,30.29,North,1,5.0,14.0,-999,0.00,,,0.00,,2013-05-02 18:42:00,
2013-05-02 11:52:00,82.0,-99.9,30.29,ENE,63,6.0,10.0,-999,0.00,,,0.00,,2013-05-02 18:52:00,
2013-05-02 12:01:00,82.0,-99.9,30.28,North,2,0.0,11.0,-999,0.00,,,0.00,,2013-05-02 19:01:00,
2013-05-02 12:11:00,82.0,-99.9,30.28,North,2,0.0,11.0,-999,0.00,,,0.00,,2013-05-02 19:11:00,
2013-05-02 12:22:00,83.0,-99.9,30.27,SE,142,0.0,9.0,-999,0.00,,,0.00,,2013-05-02 19:22:00,
2013-05-02 12:32:00,83.0,-99.9,30.27,NE,47,4.0,12.0,-999,0.00,,,0.00,,2013-05-02 19:32:00,
2013-05-02 12:42:00,83.0,-99.9,30.27,NE,47,4.0,12.0,-999,0.00,,,0.00,,2013-05-02 19:42:00,
2013-05-02 12:52:00,82.0,-99.9,30.27,NNE,30,7.0,15.0,-999,0.00,,,0.00,,2013-05-02 19:52:00,
2013-05-02 13:02:00,82.0,-99.9,30.27,NNE,25,6.0,10.0,-999,0.00,,,0.00,,2013-05-02 20:02:00,
2013-05-02 13:11:00,83.0,-99.9,30.26,NE,50,6.0,9.0,-999,0.00,,,0.00,,2013-05-02 20:11:00,
2013-05-02 13:22:00,83.0,-99.9,30.26,NE,50,6.0,9.0,-999,0.00,,,0.00,,2013-05-02 20:22:00,
2013-05-02 13:32:00,83.0,-99.9,30.25,North,358,4.0,12.0,-999,0.00,,,0.00,,2013-05-02 20:32:00,
2013-05-02 13:42:00,83.0,-99.9,30.25,North,358,4.0,12.0,-999,0.00,,,0.00,,2013-05-02 20:42:00,
2013-05-02 13:52:00,83.0,-99.9,30.25,NE,35,6.0,14.0,-999,0.00,,,0.00,,2013-05-02 20:52:00,
2013-05-02 14:01:00,84.0,-99.9,30.25,ENE,74,6.0,10.0,-999,0.00,,,0.00,,2013-05-02 21:01:00,
2013-05-02 14:12:00,84.0,-99.9,30.24,ENE,77,0.0,9.0,-999,0.00,,,0.00,,2013-05-02 21:12:00,
2013-05-02 14:22:00,84.0,-99.9,30.24,ENE,77,0.0,9.0,-999,0.00,,,0.00,,2013-05-02 21:22:00,
2013-05-02 14:33:00,85.0,-99.9,30.23,NE,35,4.0,9.0,-999,0.00,,,0.00,,2013-05-02 21:33:00,
2013-05-02 14:42:00,85.0,-99.9,30.23,NE,35,4.0,9.0,-999,0.00,,,0.00,,2013-05-02 21:42:00,
2013-05-02 14:53:00,84.0,-99.9,30.23,ESE,106,4.0,9.0,-999,0.00,,,0.00,,2013-05-02 21:53:00,
2013-05-02 15:03:00,84.0,-99.9,30.23,NNE,12,7.0,7.0,-999,0.00,,,0.00,,2013-05-02 22:03:00,
2013-05-02 15:13:00,84.0,-99.9,30.23,NNE,12,7.0,7.0,-999,0.00,,,0.00,,2013-05-02 22:13:00,
2013-05-02 15:22:00,86.0,-99.9,30.22,NE,43,6.0,11.0,-999,0.00,,,0.00,,2013-05-02 22:22:00,
2013-05-02 15:33:00,88.0,-99.9,30.22,ENE,68,7.0,10.0,-999,0.00,,,0.00,,2013-05-02 22:33:00,
2013-05-02 15:42:00,88.0,-99.9,30.22,ENE,68,7.0,10.0,-999,0.00,,,0.00,,2013-05-02 22:42:00,
2013-05-02 15:53:00,86.0,-99.9,30.20,NNE,22,8.0,11.0,-999,0.00,,,0.00,,2013-05-02 22:53:00,
2013-05-02 16:02:00,86.0,-99.9,30.20,NE,35,1.0,12.0,-999,0.00,,,0.00,,2013-05-02 23:02:00,
2013-05-02 16:12:00,86.0,-99.9,30.20,NE,35,1.0,12.0,-999,0.00,,,0.00,,2013-05-02 23:12:00,
2013-05-02 16:22:00,87.0,-99.9,30.20,East,92,6.0,11.0,-999,0.00,,,0.00,,2013-05-02 23:22:00,
2013-05-02 16:32:00,88.0,-99.9,30.20,ENE,74,4.0,8.0,-999,0.00,,,0.00,,2013-05-02 23:32:00,
2013-05-02 16:42:00,88.0,-99.9,30.20,ENE,74,4.0,8.0,-999,0.00,,,0.00,,2013-05-02 23:42:00,
2013-05-02 16:52:00,89.0,-99.9,30.20,ENE,70,3.0,10.0,-999,0.00,,,0.00,,2013-05-02 23:52:00,
2013-05-02 17:01:00,89.0,-99.9,30.20,ENE,67,0.0,5.0,-999,0.00,,,0.00,,2013-05-03 00:01:00,
2013-05-02 17:11:00,88.0,-99.9,30.20,East,91,2.0,11.0,-999,0.00,,,0.00,,2013-05-03 00:11:00,
2013-05-02 17:22:00,88.0,-99.9,30.20,East,91,2.0,11.0,-999,0.00,,,0.00,,2013-05-03 00:22:00,
2013-05-02 17:32:00,88.0,-99.9,30.19,ENE,59,4.0,16.0,-999,0.00,,,0.00,,2013-05-03 00:32:00,
2013-05-02 17:42:00,88.0,-99.9,30.19,ENE,59,4.0,16.0,-999,0.00,,,0.00,,2013-05-03 00:42:00,
2013-05-02 17:52:00,87.0,-99.9,30.19,East,94,2.0,9.0,-999,0.00,,,0.00,,2013-05-03 00:52:00,
2013-05-02 18:01:00,85.0,-99.9,30.20,NE,52,5.0,15.0,-999,0.00,,,0.00,,2013-05-03 01:01:00,
2013-05-02 18:11:00,85.0,-99.9,30.20,NE,52,5.0,15.0,-999,0.00,,,0.00,,2013-05-03 01:11:00,
2013-05-02 18:21:00,82.0,-99.9,30.20,NNE,25,9.0,13.0,-999,0.00,,,0.00,,2013-05-03 01:21:00,
2013-05-02 18:32:00,80.0,-99.9,30.20,ENE,67,11.0,18.0,-999,0.00,,,0.00,,2013-05-03 01:32:00,
2013-05-02 18:42:00,80.0,-99.9,30.20,ENE,67,11.0,18.0,-999,0.00,,,0.00,,2013-05-03 01:42:00,
2013-05-02 18:52:00,78.0,-99.9,30.20,ENE,77,7.0,14.0,-999,0.00,,,0.00,,2013-05-03 01:52:00,
2013-05-02 19:02:00,77.0,-99.9,30.20,East,90,7.0,15.0,-999,0.00,,,0.00,,2013-05-03 02:02:00,
2013-05-02 19:11:00,77.0,-99.9,30.20,East,90,7.0,15.0,-999,0.00,,,0.00,,2013-05-03 02:11:00,
2013-05-02 19:22:00,76.0,-99.9,30.22,East,94,3.0,11.0,-999,0.00,,,0.00,,2013-05-03 02:22:00,
2013-05-02 19:32:00,76.0,-99.9,30.22,ENE,63,2.0,10.0,-999,0.00,,,0.00,,2013-05-03 02:32:00,
2013-05-02 19:42:00,76.0,-99.9,30.22,ENE,63,2.0,10.0,-999,0.00,,,0.00,,2013-05-03 02:42:00,
2013-05-02 19:52:00,75.0,-99.9,30.23,ESE,113,3.0,10.0,-999,0.00,,,0.00,,2013-05-03 02:52:00,
2013-05-02 20:01:00,74.0,-99.9,30.24,ESE,105,0.0,0.0,-999,0.00,,,0.00,,2013-05-03 03:01:00,
2013-05-02 20:11:00,73.0,-99.9,30.24,South,175,0.0,5.0,-999,0.00,,,0.00,,2013-05-03 03:11:00,
2013-05-02 20:21:00,73.0,-99.9,30.24,South,175,0.0,5.0,-999,0.00,,,0.00,,2013-05-03 03:21:00,
2013-05-02 20:33:00,72.0,-99.9,30.24,South,177,0.0,0.0,-999,0.00,,,0.00,,2013-05-03 03:33:00,
2013-05-02 20:43:00,72.0,-99.9,30.24,South,177,0.0,0.0,-999,0.00,,,0.00,,2013-05-03 03:43:00,
2013-05-02 20:53:00,71.0,-99.9,30.25,SSW,209,0.0,0.0,-999,0.00,,,0.00,,2013-05-03 03:53:00,
2013-05-02 21:03:00,71.0,-99.9,30.26,South,174,0.0,5.0,-999,0.00,,,0.00,,2013-05-03 04:03:00,
2013-05-02 21:13:00,70.0,-99.9,30.27,South,191,0.0,0.0,-999,0.00,,,0.00,,2013-05-03 04:13:00,
2013-05-02 21:23:00,70.0,-99.9,30.27,South,191,0.0,0.0,-999,0.00,,,0.00,,2013-05-03 04:23:00,
2013-05-02 21:33:00,69.0,-99.9,30.28,South,175,0.0,10.0,-999,0.00,,,0.00,,2013-05-03 04:33:00,
2013-05-02 21:43:00,69.0,-99.9,30.28,South,175,0.0,10.0,-999,0.00,,,0.00,,2013-05-03 04:43:00,
2013-05-02 21:53:00,69.0,-99.9,30.29,SE,139,3.0,0.0,-999,0.00,,,0.00,,2013-05-03 04:53:00,
2013-05-02 22:03:00,67.0,-99.9,30.29,South,175,2.0,5.0,-999,0.00,,,0.00,,2013-05-03 05:03:00,
2013-05-02 22:12:00,67.0,-99.9,30.29,South,175,2.0,5.0,-999,0.00,,,0.00,,2013-05-03 05:12:00,
2013-05-02 22:22:00,66.0,-99.9,30.30,South,171,1.0,1.0,-999,0.00,,,0.00,,2013-05-03 05:22:00,
2013-05-02 22:32:00,65.0,-99.9,30.30,South,182,0.0,1.0,-999,0.00,,,0.00,,2013-05-03 05:32:00,
2013-05-02 22:42:00,65.0,-99.9,30.30,South,182,0.0,1.0,-999,0.00,,,0.00,,2013-05-03 05:42:00,
2013-05-02 22:52:00,65.0,-99.9,30.30,SSE,160,0.0,0.0,-999,0.00,,,0.00,,2013-05-03 05:52:00,
2013-05-02 23:02:00,64.0,-99.9,30.30,South,175,0.0,0.0,-999,0.00,,,0.00,,2013-05-03 06:02:00,
2013-05-02 23:12:00,64.0,-99.9,30.31,South,180,0.0,4.0,-999,0.00,,,0.00,,2013-05-03 06:12:00,
2013-05-02 23:22:00,64.0,-99.9,30.31,South,180,0.0,4.0,-999,0.00,,,0.00,,2013-05-03 06:22:00,
2013-05-02 23:32:00,64.0,-99.9,30.31,SSE,156,0.0,3.0,-999,0.00,,,0.00,,2013-05-03 06:32:00,
2013-05-02 23:42:00,64.0,-99.9,30.31,SSE,156,0.0,3.0,-999,0.00,,,0.00,,2013-05-03 06:42:00,
2013-05-02 23:52:00,64.0,-99.9,30.31,South,191,0.0,0.0,-999,0.00,,,0.00,,2013-05-03 06:52:00,